This demonstration page uses our WeatherBlox Daily Observations layout. Learn more.

Left ArrowRight Arrow

34.74481, -87.66753

Hourly Observations for May 28, 2017

Temp ( °F °C ) Dew Point ( °F °C ) Humidity (%) Winds ( mph kmh ) Pressure ( in mb ) Visibility ( mi km ) Precip ( " mm )
12:20 am 00:20 Cloudy with Nearby Thunderstorms 67 19.4 62 16.7 84 84 ENE 12 19 29.88 1012 10 16 0.01 0.25
12:27 am 00:27 Cloudy with Thunderstorms 66 18.9 62 16.7 87 87 ENE 10 17 29.88 1012 10 16 0.01 0.25
12:42 am 00:42 Cloudy with Nearby Thunderstorms 66 18.9 62 16.7 87 87 E 10 17 29.88 1012 10 16 0.02 0.51
12:53 am 00:53 Mostly Cloudy with Nearby Thunderstorms 66 18.9 63 17.2 90 90 E 10 17 29.90 1013 10 16 0.02 0.51
1:00 am 01:00 Mostly Cloudy with Thunderstorms 66 18.9 63 17.2 90 90 VRB 6 9 29.97 1015 10 16 0.00 0.03
1:07 am 01:07 Cloudy with Strong Thunderstorms 66 18.9 63 17.2 90 90 NNW 20 31 30.03 1017 5 8 0.14 3.56
1:11 am 01:11 Cloudy with Strong Thunderstorms 65 18.3 62 16.7 90 90 NNW 22 35 30.03 1017 2 2 0.44 11.18
1:17 am 01:17 Cloudy with Strong Thunderstorms 64 17.8 62 16.7 93 93 N 12 19 30.03 1017 1 2 0.60 15.24
1:24 am 01:24 Cloudy with Strong Thunderstorms 64 17.8 62 16.7 93 93 N 8 13 30.00 1016 3 5 0.69 17.53
1:35 am 01:35 Mostly Cloudy with Strong Thunderstorms 64 17.8 62 16.7 93 93 NE 8 13 29.94 1014 5 8 0.76 19.30
1:53 am 01:53 Mostly Cloudy with Thunderstorms 65 18.3 62 16.7 90 90 ENE 7 11 29.93 1014 10 16 0.78 19.81
2:13 am 02:13 Mostly Cloudy with Nearby Thunderstorms 65 18.3 62 16.7 90 90 ESE 8 13 29.91 1013 10 16 0.03 0.76
2:40 am 02:40 Partly Cloudy with Light Rain 65 18.3 62 16.7 90 90 E 6 9 29.88 1012 10 16 0.06 1.52
2:53 am 02:53 Mostly Cloudy with Rain 65 18.3 62 16.7 90 90 SE 8 13 29.91 1013 10 16 0.08 2.03
3:53 am 03:53 Cloudy with Light Rain 65 18.3 62 16.7 90 90 VRB 3 6 29.93 1013 10 16 0.15 3.81
4:53 am 04:53 Cloudy with Rain 65 18.3 62 16.7 90 90 W 6 9 29.91 1013 7 11 0.12 3.05
5:53 am 05:53 Cloudy with Light Rain 65 18.3 62 16.7 90 90 SW 6 9 29.96 1015 10 16 0.05 1.27
6:53 am 06:53 Cloudy with Light Rain 65 18.3 63 17.2 93 93 WSW 8 13 30.00 1016 10 16 0.03 0.76
7:53 am 07:53 Mostly Cloudy 66 18.9 63 17.2 90 90 SW 7 11 29.97 1015 10 16 0.00 0.03
8:53 am 08:53 Sunny 67 19.4 63 17.2 87 87 SW 9 15 29.96 1015 10 16 0.00 0.00
9:53 am 09:53 Sunny 72 22.2 64 17.8 76 76 SSW 12 19 29.90 1013 10 16 0.00 0.00
10:53 am 10:53 Sunny 77 25 64 17.8 64 64 WSW 10 17 29.88 1012 10 16 0.00 0.00
11:53 am 11:53 Sunny 80 26.7 63 17.2 56 56 SW 16 26 29.91 1013 10 16 0.00 0.00
12:53 pm 12:53 Sunny 83 28.3 62 16.7 49 49 W 9 15 29.90 1012 10 16 0.00 0.00
1:53 pm 13:53 Sunny 85 29.4 63 17.2 48 48 VRB 6 9 29.89 1012 10 16 0.00 0.00
2:53 pm 14:53 Partly Cloudy 85 29.4 63 17.2 48 48 W 9 15 29.88 1012 10 16 0.00 0.00
3:53 pm 15:53 Mostly Sunny 86 30 63 17.2 46 46 W 15 24 29.90 1013 10 16 0.00 0.00
4:53 pm 16:53 Partly Cloudy 83 28.3 63 17.2 51 51 W 14 22 29.92 1013 10 16 0.00 0.00
5:53 pm 17:53 Partly Cloudy 82 27.8 63 17.2 53 53 W 9 15 29.92 1013 10 16 0.00 0.00
6:53 pm 18:53 Sunny 80 26.7 62 16.7 54 54 W 9 15 29.91 1013 10 16 0.00 0.00
7:53 pm 19:53 Sunny 76 24.4 63 17.2 64 64 W 8 13 29.91 1013 10 16 0.00 0.00
8:53 pm 20:53 Mostly Clear 72 22.2 64 17.8 76 76 W 7 11 29.94 1014 10 16 0.00 0.00
9:53 pm 21:53 Mostly Clear 72 22.2 64 17.8 76 76 WNW 7 11 29.93 1014 10 16 0.00 0.00
10:53 pm 22:53 Clear 70 21.1 64 17.8 82 82 WSW 6 9 29.94 1014 10 16 0.00 0.00
11:53 pm 23:53 Clear 69 20.6 64 17.8 84 84 Calm 29.94 1014 10 16 0.00 0.00

Powered by AerisWeather